IRNSS-1F

Last updated on Tue Sep 16 2025 00:02:48 GMT+0000 (Coordinated Universal Time)

1 41384U 16015A 25258.59098932 .00000142 00000+0 00000+0 0 9995 2 41384 4.6573 103.5966 0019596 175.9047 320.6059 1.00279648 34919
UTC large
Height (km)
Speed (km/s)
/
Latitude / Longitude
Inclination (degrees)
Orbital Period (minutes)
Azimuth
Elevation
Range (km)
Doppler Factor

Next 0 passes for location: London (51.5072 / 0.1276)

Sorry there are no passes over London.